Year,Month,Day,Hour,Minute,Value (Times are PST for temperature in C)
2014,08,12,00,00,16.70
2014,08,12,00,01,16.70
2014,08,12,00,02,16.70
2014,08,12,00,03,16.60
2014,08,12,00,04,16.60
2014,08,12,00,05,16.50
2014,08,12,00,06,16.40
2014,08,12,00,07,16.40
2014,08,12,00,08,16.40
2014,08,12,00,09,16.40
2014,08,12,00,10,16.40
2014,08,12,00,11,16.30
2014,08,12,00,12,16.30
2014,08,12,00,13,16.30
2014,08,12,00,14,16.30
2014,08,12,00,15,16.30
2014,08,12,00,16,16.30
2014,08,12,00,17,16.40
2014,08,12,00,18,16.40
2014,08,12,00,19,16.40
2014,08,12,00,20,16.40
2014,08,12,00,21,16.40
2014,08,12,00,22,16.40
2014,08,12,00,23,16.40
2014,08,12,00,24,16.40
2014,08,12,00,25,16.40
2014,08,12,00,26,16.40
2014,08,12,00,27,16.40
2014,08,12,00,28,16.40
2014,08,12,00,29,16.40
2014,08,12,00,30,16.60
2014,08,12,00,31,16.60
2014,08,12,00,32,16.60
2014,08,12,00,33,16.60
2014,08,12,00,34,16.60
2014,08,12,00,35,16.60
2014,08,12,00,36,16.60
2014,08,12,00,37,16.60
2014,08,12,00,38,16.60
2014,08,12,00,39,16.60
2014,08,12,00,40,16.60
2014,08,12,00,41,16.60
2014,08,12,00,42,16.60
2014,08,12,00,43,16.60
2014,08,12,00,44,16.60
2014,08,12,00,45,16.60
2014,08,12,00,46,16.60
2014,08,12,00,47,16.60
2014,08,12,00,48,16.50
2014,08,12,00,49,16.40
2014,08,12,00,50,16.40
2014,08,12,00,51,16.40
2014,08,12,00,52,16.40
2014,08,12,00,53,16.40
2014,08,12,00,54,16.40
2014,08,12,00,55,16.40
2014,08,12,00,56,16.40
2014,08,12,00,57,16.40
2014,08,12,00,58,16.40
2014,08,12,00,59,16.40
2014,08,12,01,00,16.40
2014,08,12,01,01,16.40
2014,08,12,01,02,16.40
2014,08,12,01,03,16.40
2014,08,12,01,04,16.30
2014,08,12,01,05,16.30
2014,08,12,01,06,16.30
2014,08,12,01,07,16.30
2014,08,12,01,08,16.20
2014,08,12,01,09,16.20
2014,08,12,01,10,16.20
2014,08,12,01,11,16.20
2014,08,12,01,12,16.20
2014,08,12,01,13,16.20
2014,08,12,01,14,16.20
2014,08,12,01,15,16.20
2014,08,12,01,16,16.20
2014,08,12,01,17,16.20
2014,08,12,01,18,16.20
2014,08,12,01,19,16.20
2014,08,12,01,20,16.20
2014,08,12,01,21,16.20
2014,08,12,01,22,16.30
2014,08,12,01,23,16.30
2014,08,12,01,24,16.30
2014,08,12,01,25,16.30
2014,08,12,01,26,16.30
2014,08,12,01,27,16.30
2014,08,12,01,28,16.30
2014,08,12,01,29,16.30
2014,08,12,01,30,16.30
2014,08,12,01,31,16.40
2014,08,12,01,32,16.40
2014,08,12,01,33,16.40
2014,08,12,01,34,16.40
2014,08,12,01,35,16.40
2014,08,12,01,36,16.40
2014,08,12,01,37,16.40
2014,08,12,01,38,16.30
2014,08,12,01,39,16.30
2014,08,12,01,40,16.30
2014,08,12,01,41,16.30
2014,08,12,01,42,16.30
2014,08,12,01,43,16.30
2014,08,12,01,44,16.30
2014,08,12,01,45,16.30
2014,08,12,01,46,16.30
2014,08,12,01,47,16.30
2014,08,12,01,48,16.30
2014,08,12,01,49,16.30
2014,08,12,01,50,16.40
2014,08,12,01,51,16.40
2014,08,12,01,52,16.40
2014,08,12,01,53,16.40
2014,08,12,01,54,16.40
2014,08,12,01,55,16.40
2014,08,12,01,56,16.40
2014,08,12,01,57,16.40
2014,08,12,01,58,16.40
2014,08,12,01,59,16.40
2014,08,12,02,00,16.40
2014,08,12,02,01,16.40
2014,08,12,02,02,16.40
2014,08,12,02,03,16.40
2014,08,12,02,04,16.40
2014,08,12,02,05,16.40
2014,08,12,02,06,16.50
2014,08,12,02,07,16.60
2014,08,12,02,08,16.60
2014,08,12,02,09,16.60
2014,08,12,02,10,16.80
2014,08,12,02,11,16.90
2014,08,12,02,12,17.00
2014,08,12,02,13,17.00
2014,08,12,02,14,16.90
2014,08,12,02,15,16.90
2014,08,12,02,16,16.80
2014,08,12,02,17,16.80
2014,08,12,02,18,16.70
2014,08,12,02,19,16.70
2014,08,12,02,20,16.60
2014,08,12,02,21,16.60
2014,08,12,02,22,16.60
2014,08,12,02,23,16.40
2014,08,12,02,24,16.40
2014,08,12,02,25,16.40
2014,08,12,02,26,16.40
2014,08,12,02,27,16.40
2014,08,12,02,28,16.40
2014,08,12,02,29,16.40
2014,08,12,02,30,16.30
2014,08,12,02,31,16.30
2014,08,12,02,32,16.30
2014,08,12,02,33,16.30
2014,08,12,02,34,16.30
2014,08,12,02,35,16.30
2014,08,12,02,36,16.20
2014,08,12,02,37,16.20
2014,08,12,02,38,16.20
2014,08,12,02,39,16.20
2014,08,12,02,40,16.20
2014,08,12,02,41,16.20
2014,08,12,02,42,16.10
2014,08,12,02,43,16.10
2014,08,12,02,44,16.10
2014,08,12,02,45,16.10
2014,08,12,02,46,16.10
2014,08,12,02,47,16.10
2014,08,12,02,48,16.10
2014,08,12,02,49,16.10
2014,08,12,02,50,16.10
2014,08,12,02,51,16.10
2014,08,12,02,52,16.10
2014,08,12,02,53,16.10
2014,08,12,02,54,16.10
2014,08,12,02,55,16.10
2014,08,12,02,56,16.10
2014,08,12,02,57,16.00
2014,08,12,02,58,15.90
2014,08,12,02,59,15.90
2014,08,12,03,00,15.90
2014,08,12,03,01,15.90
2014,08,12,03,02,15.90
2014,08,12,03,03,15.90
2014,08,12,03,04,15.90
2014,08,12,03,05,15.90
2014,08,12,03,06,15.90
2014,08,12,03,07,15.90
2014,08,12,03,08,15.90
2014,08,12,03,09,15.90
2014,08,12,03,10,15.90
2014,08,12,03,11,15.90
2014,08,12,03,12,15.80
2014,08,12,03,13,15.80
2014,08,12,03,14,15.80
2014,08,12,03,15,15.80
2014,08,12,03,16,15.80
2014,08,12,03,17,15.80
2014,08,12,03,18,15.80
2014,08,12,03,19,15.80
2014,08,12,03,20,15.80
2014,08,12,03,21,15.80
2014,08,12,03,22,15.80
2014,08,12,03,23,15.80
2014,08,12,03,24,15.80
2014,08,12,03,25,15.80
2014,08,12,03,26,15.80
2014,08,12,03,27,15.80
2014,08,12,03,28,15.80
2014,08,12,03,29,15.80
2014,08,12,03,30,15.80
2014,08,12,03,31,15.90
2014,08,12,03,32,15.90
2014,08,12,03,33,15.90
2014,08,12,03,34,15.90
2014,08,12,03,35,15.90
2014,08,12,03,36,15.90
2014,08,12,03,37,15.90
2014,08,12,03,38,15.90
2014,08,12,03,39,15.90
2014,08,12,03,40,15.90
2014,08,12,03,41,16.00
2014,08,12,03,42,16.10
2014,08,12,03,43,16.10
2014,08,12,03,44,16.10
2014,08,12,03,45,16.10
2014,08,12,03,46,16.10
2014,08,12,03,47,16.10
2014,08,12,03,48,16.10
2014,08,12,03,49,16.10
2014,08,12,03,50,16.10
2014,08,12,03,51,16.10
2014,08,12,03,52,16.10
2014,08,12,03,53,16.20
2014,08,12,03,54,16.20
2014,08,12,03,55,16.20
2014,08,12,03,56,16.30
2014,08,12,03,57,16.30
2014,08,12,03,58,16.30
2014,08,12,03,59,16.30
2014,08,12,04,00,16.30
2014,08,12,04,01,16.30
2014,08,12,04,02,16.40
2014,08,12,04,03,16.40
2014,08,12,04,04,16.40
2014,08,12,04,05,16.40
2014,08,12,04,06,16.40
2014,08,12,04,07,16.40
2014,08,12,04,08,16.40
2014,08,12,04,09,16.40
2014,08,12,04,10,16.40
2014,08,12,04,11,16.40
2014,08,12,04,12,16.40
2014,08,12,04,13,16.40
2014,08,12,04,14,16.50
2014,08,12,04,15,16.60
2014,08,12,04,16,16.60
2014,08,12,04,17,16.60
2014,08,12,04,18,16.60
2014,08,12,04,19,16.60
2014,08,12,04,20,16.60
2014,08,12,04,21,16.60
2014,08,12,04,22,16.60
2014,08,12,04,23,16.50
2014,08,12,04,24,16.40
2014,08,12,04,25,16.40
2014,08,12,04,26,16.40
2014,08,12,04,27,16.40
2014,08,12,04,28,16.40
2014,08,12,04,29,16.40
2014,08,12,04,30,16.40
2014,08,12,04,31,16.40
2014,08,12,04,32,16.40
2014,08,12,04,33,16.40
2014,08,12,04,34,16.40
2014,08,12,04,35,16.40
2014,08,12,04,36,16.40
2014,08,12,04,37,16.30
2014,08,12,04,38,16.30
2014,08,12,04,39,16.30
2014,08,12,04,40,16.30
2014,08,12,04,41,16.30
2014,08,12,04,42,16.30
2014,08,12,04,43,16.20
2014,08,12,04,44,16.20
2014,08,12,04,45,16.20
2014,08,12,04,46,16.20
2014,08,12,04,47,16.30
2014,08,12,04,48,16.30
2014,08,12,04,49,16.30
2014,08,12,04,50,16.30
2014,08,12,04,51,16.30
2014,08,12,04,52,16.30
2014,08,12,04,53,16.30
2014,08,12,04,54,16.30
2014,08,12,04,55,16.30
2014,08,12,04,56,16.30
2014,08,12,04,57,16.30
2014,08,12,04,58,16.30
2014,08,12,04,59,16.30
2014,08,12,05,00,16.30
2014,08,12,05,01,16.30
2014,08,12,05,02,16.30
2014,08,12,05,03,16.30
2014,08,12,05,04,16.30
2014,08,12,05,05,16.40
2014,08,12,05,06,16.40
2014,08,12,05,07,16.40
2014,08,12,05,08,16.40
2014,08,12,05,09,16.40
2014,08,12,05,10,16.30
2014,08,12,05,11,16.30
2014,08,12,05,12,16.30
2014,08,12,05,13,16.40
2014,08,12,05,14,16.40
2014,08,12,05,15,16.40
2014,08,12,05,16,16.40
2014,08,12,05,17,16.40
2014,08,12,05,18,16.40
2014,08,12,05,19,16.40
2014,08,12,05,20,16.50
2014,08,12,05,21,16.60
2014,08,12,05,22,16.60
2014,08,12,05,23,16.60
2014,08,12,05,24,16.70
2014,08,12,05,25,16.70
2014,08,12,05,26,16.70
2014,08,12,05,27,16.70
2014,08,12,05,28,16.80
2014,08,12,05,29,16.90
2014,08,12,05,30,16.90
2014,08,12,05,31,16.90
2014,08,12,05,32,17.00
2014,08,12,05,33,17.00
2014,08,12,05,34,17.00
2014,08,12,05,35,17.00
2014,08,12,05,36,17.00
2014,08,12,05,37,17.00
2014,08,12,05,38,17.00
2014,08,12,05,39,17.00
2014,08,12,05,40,17.00
2014,08,12,05,41,17.00
2014,08,12,05,42,17.00
2014,08,12,05,43,17.00
2014,08,12,05,44,17.00
2014,08,12,05,45,17.00
2014,08,12,05,46,17.00
2014,08,12,05,47,17.00
2014,08,12,05,48,17.00
2014,08,12,05,49,17.00
2014,08,12,05,50,17.00
2014,08,12,05,51,17.00
2014,08,12,05,52,17.00
2014,08,12,05,53,16.90
2014,08,12,05,54,16.90
2014,08,12,05,55,16.90
2014,08,12,05,56,16.90
2014,08,12,05,57,16.90
2014,08,12,05,58,16.80
2014,08,12,05,59,16.80
2014,08,12,06,00,16.80
2014,08,12,06,01,16.80
2014,08,12,06,02,16.80
2014,08,12,06,03,16.80
2014,08,12,06,04,16.80
2014,08,12,06,05,16.80
2014,08,12,06,06,16.80
2014,08,12,06,07,16.80
2014,08,12,06,08,16.90
2014,08,12,06,09,16.90
2014,08,12,06,10,16.90
2014,08,12,06,11,16.90
2014,08,12,06,12,16.90
2014,08,12,06,13,16.90
2014,08,12,06,14,16.90
2014,08,12,06,15,16.90
2014,08,12,06,16,16.90
2014,08,12,06,17,16.90
2014,08,12,06,18,16.90
2014,08,12,06,19,16.90
2014,08,12,06,20,16.90
2014,08,12,06,21,16.90
2014,08,12,06,22,16.90
2014,08,12,06,23,16.80
2014,08,12,06,24,16.80
2014,08,12,06,25,16.80
2014,08,12,06,26,16.80
2014,08,12,06,27,16.80
2014,08,12,06,28,16.70
2014,08,12,06,29,16.70
2014,08,12,06,30,16.70
2014,08,12,06,31,16.70
2014,08,12,06,32,16.70
2014,08,12,06,33,16.70
2014,08,12,06,34,16.70
2014,08,12,06,35,16.70
2014,08,12,06,36,16.70
2014,08,12,06,37,16.70
2014,08,12,06,38,16.70
2014,08,12,06,39,16.70
2014,08,12,06,40,16.70
2014,08,12,06,41,16.70
2014,08,12,06,42,16.70
2014,08,12,06,43,16.70
2014,08,12,06,44,16.70
2014,08,12,06,45,16.70
2014,08,12,06,46,16.70
2014,08,12,06,47,16.70
2014,08,12,06,48,16.70
2014,08,12,06,49,16.70
2014,08,12,06,50,16.70
2014,08,12,06,51,16.60
2014,08,12,06,52,16.60
2014,08,12,06,53,16.50
2014,08,12,06,54,16.40
2014,08,12,06,55,16.30
2014,08,12,06,56,16.30
2014,08,12,06,57,16.20
2014,08,12,06,58,16.10
2014,08,12,06,59,16.10
2014,08,12,07,00,15.90
2014,08,12,07,01,15.90
2014,08,12,07,02,15.80
2014,08,12,07,03,15.80
2014,08,12,07,04,15.80
2014,08,12,07,05,15.70
2014,08,12,07,06,15.60
2014,08,12,07,07,15.60
2014,08,12,07,08,15.60
2014,08,12,07,09,15.60
2014,08,12,07,10,15.50
2014,08,12,07,11,15.50
2014,08,12,07,12,15.50
2014,08,12,07,13,15.50
2014,08,12,07,14,15.50
2014,08,12,07,15,15.50
2014,08,12,07,16,15.50
2014,08,12,07,17,15.40
2014,08,12,07,18,15.40
2014,08,12,07,19,15.40
2014,08,12,07,20,15.40
2014,08,12,07,21,15.40
2014,08,12,07,22,15.40
2014,08,12,07,23,15.40
2014,08,12,07,24,15.50
2014,08,12,07,25,15.50
2014,08,12,07,26,15.50
2014,08,12,07,27,15.50
2014,08,12,07,28,15.50
2014,08,12,07,29,15.50
2014,08,12,07,30,15.50
2014,08,12,07,31,15.50
2014,08,12,07,32,15.50
2014,08,12,07,33,15.50
2014,08,12,07,34,15.50
2014,08,12,07,35,15.60
2014,08,12,07,36,15.60
2014,08,12,07,37,15.60
2014,08,12,07,38,15.60
2014,08,12,07,39,15.60
2014,08,12,07,40,15.60
2014,08,12,07,41,15.60
2014,08,12,07,42,15.60
2014,08,12,07,43,15.60
2014,08,12,07,44,15.60
2014,08,12,07,45,15.70
2014,08,12,07,46,15.70
2014,08,12,07,47,15.70
2014,08,12,07,48,15.70
2014,08,12,07,49,15.70
2014,08,12,07,50,15.70
2014,08,12,07,51,15.70
2014,08,12,07,52,15.70
2014,08,12,07,53,15.70
2014,08,12,07,54,15.70
2014,08,12,07,55,15.80
2014,08,12,07,56,15.80
2014,08,12,07,57,15.80
2014,08,12,07,58,15.80
2014,08,12,07,59,15.80
2014,08,12,08,00,15.80
2014,08,12,08,01,15.80
2014,08,12,08,02,15.80
2014,08,12,08,03,15.80
2014,08,12,08,04,15.80
2014,08,12,08,05,15.80
2014,08,12,08,06,15.80
2014,08,12,08,07,15.80
2014,08,12,08,08,15.80
2014,08,12,08,09,15.80
2014,08,12,08,10,15.80
2014,08,12,08,11,15.80
2014,08,12,08,12,15.80
2014,08,12,08,13,15.80
2014,08,12,08,14,15.80
2014,08,12,08,15,15.80
2014,08,12,08,16,15.80
2014,08,12,08,17,15.80
2014,08,12,08,18,15.80
2014,08,12,08,19,15.80
2014,08,12,08,20,15.80
2014,08,12,08,21,15.70
2014,08,12,08,22,15.80
2014,08,12,08,23,15.80
2014,08,12,08,24,15.80
2014,08,12,08,25,15.80
2014,08,12,08,26,15.80
2014,08,12,08,27,15.80
2014,08,12,08,28,15.90
2014,08,12,08,29,16.00
2014,08,12,08,30,16.10
2014,08,12,08,31,16.10
2014,08,12,08,32,16.20
2014,08,12,08,33,16.20
2014,08,12,08,34,16.10
2014,08,12,08,35,16.10
2014,08,12,08,36,16.10
2014,08,12,08,37,16.10
2014,08,12,08,38,16.10
2014,08,12,08,39,16.00
2014,08,12,08,40,15.90
2014,08,12,08,41,15.80
2014,08,12,08,42,15.80
2014,08,12,08,43,15.80
2014,08,12,08,44,15.60
2014,08,12,08,45,15.60
2014,08,12,08,46,15.50
2014,08,12,08,47,15.50
2014,08,12,08,48,15.50
2014,08,12,08,49,15.50
2014,08,12,08,50,15.40
2014,08,12,08,51,15.40
2014,08,12,08,52,15.40
2014,08,12,08,53,15.40
2014,08,12,08,54,15.40
2014,08,12,08,55,15.40
2014,08,12,08,56,15.40
2014,08,12,08,57,15.40
2014,08,12,08,58,15.40
2014,08,12,08,59,15.40
2014,08,12,09,00,15.50
2014,08,12,09,01,15.50
2014,08,12,09,02,15.50
2014,08,12,09,03,15.60
2014,08,12,09,04,15.60
2014,08,12,09,05,15.70
2014,08,12,09,06,15.80
2014,08,12,09,07,15.90
2014,08,12,09,08,16.00
2014,08,12,09,09,16.10
2014,08,12,09,10,16.10
2014,08,12,09,11,16.20
2014,08,12,09,12,16.30
2014,08,12,09,13,16.30
2014,08,12,09,14,16.30
2014,08,12,09,15,16.40
2014,08,12,09,16,16.40
2014,08,12,09,17,16.50
2014,08,12,09,18,16.60
2014,08,12,09,19,16.70
2014,08,12,09,20,16.70
2014,08,12,09,21,16.80
2014,08,12,09,22,16.90
2014,08,12,09,23,16.90
2014,08,12,09,24,17.00
2014,08,12,09,25,17.00
2014,08,12,09,26,17.00
2014,08,12,09,27,17.10
2014,08,12,09,28,17.10
2014,08,12,09,29,17.20
2014,08,12,09,30,17.20
2014,08,12,09,31,17.20
2014,08,12,09,32,17.20
2014,08,12,09,33,17.30
2014,08,12,09,34,17.30
2014,08,12,09,35,17.30
2014,08,12,09,36,17.30
2014,08,12,09,37,17.40
2014,08,12,09,38,17.40
2014,08,12,09,39,17.50
2014,08,12,09,40,17.50
2014,08,12,09,41,17.60
2014,08,12,09,42,17.60
2014,08,12,09,43,17.70
2014,08,12,09,44,17.80
2014,08,12,09,45,17.80
2014,08,12,09,46,17.90
2014,08,12,09,47,17.90
2014,08,12,09,48,17.90
2014,08,12,09,49,17.90
2014,08,12,09,50,18.00
2014,08,12,09,51,18.10
2014,08,12,09,52,18.10
2014,08,12,09,53,18.10
2014,08,12,09,54,18.20
2014,08,12,09,55,18.20
2014,08,12,09,56,18.30
2014,08,12,09,57,18.40
2014,08,12,09,58,18.50
2014,08,12,09,59,18.60
2014,08,12,10,00,18.70
2014,08,12,10,01,18.80
2014,08,12,10,02,18.80
2014,08,12,10,03,18.90
2014,08,12,10,04,18.90
2014,08,12,10,05,18.90
2014,08,12,10,06,19.00
2014,08,12,10,07,19.10
2014,08,12,10,08,19.10
2014,08,12,10,09,19.10
2014,08,12,10,10,19.20
2014,08,12,10,11,19.30
2014,08,12,10,12,19.30
2014,08,12,10,13,19.40
2014,08,12,10,14,19.40
2014,08,12,10,15,19.40
2014,08,12,10,16,19.50
2014,08,12,10,17,19.50
2014,08,12,10,18,19.50
2014,08,12,10,19,19.60
2014,08,12,10,20,19.60
2014,08,12,10,21,19.60
2014,08,12,10,22,19.70
2014,08,12,10,23,19.70
2014,08,12,10,24,19.80
2014,08,12,10,25,19.90
2014,08,12,10,26,19.90
2014,08,12,10,27,19.90
2014,08,12,10,28,19.90
2014,08,12,10,29,19.90
2014,08,12,10,30,19.90
2014,08,12,10,31,19.90
2014,08,12,10,32,20.00
2014,08,12,10,33,20.10
2014,08,12,10,34,20.10
2014,08,12,10,35,20.20
2014,08,12,10,36,20.20
2014,08,12,10,37,20.20
2014,08,12,10,38,20.20
2014,08,12,10,39,20.20
2014,08,12,10,40,20.30
2014,08,12,10,41,20.40
2014,08,12,10,42,20.40
2014,08,12,10,43,20.50
2014,08,12,10,44,20.50
2014,08,12,10,45,20.60
2014,08,12,10,46,20.60
2014,08,12,10,47,20.60
2014,08,12,10,48,20.70
2014,08,12,10,49,20.70
2014,08,12,10,50,20.80
2014,08,12,10,51,20.80
2014,08,12,10,52,20.90
2014,08,12,10,53,20.90
2014,08,12,10,54,21.00
2014,08,12,10,55,21.00
2014,08,12,10,56,21.00
2014,08,12,10,57,21.00
2014,08,12,10,58,21.00
2014,08,12,10,59,21.00
2014,08,12,11,00,20.90
2014,08,12,11,01,20.80
2014,08,12,11,02,20.80
2014,08,12,11,03,20.70
2014,08,12,11,04,20.70
2014,08,12,11,05,20.60
2014,08,12,11,06,20.60
2014,08,12,11,07,20.50
2014,08,12,11,08,20.50
2014,08,12,11,09,20.50
2014,08,12,11,10,20.50
2014,08,12,11,11,20.50
2014,08,12,11,12,20.50
2014,08,12,11,13,20.50
2014,08,12,11,14,20.40
2014,08,12,11,15,20.40
2014,08,12,11,16,20.40
2014,08,12,11,17,20.30
2014,08,12,11,18,20.20
2014,08,12,11,19,20.00
2014,08,12,11,20,19.80
2014,08,12,11,21,19.60
2014,08,12,11,22,19.50
2014,08,12,11,23,19.40
2014,08,12,11,24,19.40
2014,08,12,11,25,19.40
2014,08,12,11,26,19.40
2014,08,12,11,27,19.40
2014,08,12,11,28,19.40
2014,08,12,11,29,19.40
2014,08,12,11,30,19.50
2014,08,12,11,31,19.50
2014,08,12,11,32,19.50
2014,08,12,11,33,19.50
2014,08,12,11,34,19.50
2014,08,12,11,35,19.50
2014,08,12,11,36,19.60
2014,08,12,11,37,19.60
2014,08,12,11,38,19.60
2014,08,12,11,39,19.60
2014,08,12,11,40,19.60
2014,08,12,11,41,19.60
2014,08,12,11,42,19.60
2014,08,12,11,43,19.60
2014,08,12,11,44,19.60
2014,08,12,11,45,19.60
2014,08,12,11,46,19.60
2014,08,12,11,47,19.60
2014,08,12,11,48,19.60
2014,08,12,11,49,19.70
2014,08,12,11,50,19.70
2014,08,12,11,51,19.80
2014,08,12,11,52,19.80
2014,08,12,11,53,19.80
2014,08,12,11,54,19.80
2014,08,12,11,55,19.80
2014,08,12,11,56,19.80
2014,08,12,11,57,19.80
2014,08,12,11,58,19.70
2014,08,12,11,59,19.60
2014,08,12,12,00,19.50
2014,08,12,12,01,19.40
2014,08,12,12,02,19.30
2014,08,12,12,03,19.40
2014,08,12,12,04,19.40
2014,08,12,12,05,19.50
2014,08,12,12,06,19.70
2014,08,12,12,07,19.90
2014,08,12,12,08,20.10
2014,08,12,12,09,20.30
2014,08,12,12,10,20.40
2014,08,12,12,11,20.60
2014,08,12,12,12,20.70
2014,08,12,12,13,20.90
2014,08,12,12,14,21.00
2014,08,12,12,15,21.10
2014,08,12,12,16,21.30
2014,08,12,12,17,21.30
2014,08,12,12,18,21.50
2014,08,12,12,19,21.60
2014,08,12,12,20,21.60
2014,08,12,12,21,21.60
2014,08,12,12,22,21.70
2014,08,12,12,23,21.70
2014,08,12,12,24,21.80
2014,08,12,12,25,21.80
2014,08,12,12,26,21.90
2014,08,12,12,27,21.90
2014,08,12,12,28,22.00
2014,08,12,12,29,22.00
2014,08,12,12,30,22.10
2014,08,12,12,31,22.10
2014,08,12,12,32,22.20
2014,08,12,12,33,22.20
2014,08,12,12,34,22.30
2014,08,12,12,35,22.40
2014,08,12,12,36,22.40
2014,08,12,12,37,22.40
2014,08,12,12,38,22.40
2014,08,12,12,39,22.50
2014,08,12,12,40,22.50
2014,08,12,12,41,22.50
2014,08,12,12,42,22.60
2014,08,12,12,43,22.60
2014,08,12,12,44,22.70
2014,08,12,12,45,22.70
2014,08,12,12,46,22.80
2014,08,12,12,47,22.80
2014,08,12,12,48,22.90
2014,08,12,12,49,22.80
2014,08,12,12,50,22.80
2014,08,12,12,51,22.70
2014,08,12,12,52,22.70
2014,08,12,12,53,22.70
2014,08,12,12,54,22.70
2014,08,12,12,55,22.80
2014,08,12,12,56,22.90
2014,08,12,12,57,23.00
2014,08,12,12,58,23.10
2014,08,12,12,59,23.20
2014,08,12,13,00,23.30
2014,08,12,13,01,23.30
2014,08,12,13,02,23.20
2014,08,12,13,03,23.20
2014,08,12,13,04,23.10
2014,08,12,13,05,23.10
2014,08,12,13,06,23.10
2014,08,12,13,07,22.90
2014,08,12,13,08,22.90
2014,08,12,13,09,22.90
2014,08,12,13,10,22.90
2014,08,12,13,11,22.70
2014,08,12,13,12,22.70
2014,08,12,13,13,22.60
2014,08,12,13,14,22.60
2014,08,12,13,15,22.50
2014,08,12,13,16,22.30
2014,08,12,13,17,22.20
2014,08,12,13,18,22.20
2014,08,12,13,19,22.10
2014,08,12,13,20,22.10
2014,08,12,13,21,22.20
2014,08,12,13,22,22.20
2014,08,12,13,23,22.20
2014,08,12,13,24,22.30
2014,08,12,13,25,22.30
2014,08,12,13,26,22.30
2014,08,12,13,27,22.10
2014,08,12,13,28,21.90
2014,08,12,13,29,21.70
2014,08,12,13,30,21.40
2014,08,12,13,31,21.30
2014,08,12,13,32,21.10
2014,08,12,13,33,21.00
2014,08,12,13,34,20.90
2014,08,12,13,35,20.80
2014,08,12,13,36,20.70
2014,08,12,13,37,20.70
2014,08,12,13,38,20.80
2014,08,12,13,39,20.70
2014,08,12,13,40,20.70
2014,08,12,13,41,20.80
2014,08,12,13,42,20.80
2014,08,12,13,43,20.80
2014,08,12,13,44,20.80
2014,08,12,13,45,20.80
2014,08,12,13,46,20.90
2014,08,12,13,47,21.00
2014,08,12,13,48,21.00
2014,08,12,13,49,21.00
2014,08,12,13,50,20.90
2014,08,12,13,51,20.90
2014,08,12,13,52,20.80
2014,08,12,13,53,20.70
2014,08,12,13,54,20.60
2014,08,12,13,55,20.60
2014,08,12,13,56,20.60
2014,08,12,13,57,20.60
2014,08,12,13,58,20.70
2014,08,12,13,59,20.70
2014,08,12,14,00,20.80
2014,08,12,14,01,20.90
2014,08,12,14,02,21.00
2014,08,12,14,03,21.20
2014,08,12,14,04,21.40
2014,08,12,14,05,21.50
2014,08,12,14,06,21.70
2014,08,12,14,07,21.80
2014,08,12,14,08,22.00
2014,08,12,14,09,22.20
2014,08,12,14,10,22.30
2014,08,12,14,11,22.40
2014,08,12,14,12,22.50
2014,08,12,14,13,22.60
2014,08,12,14,14,22.70
2014,08,12,14,15,22.80
2014,08,12,14,16,22.90
2014,08,12,14,17,23.00
2014,08,12,14,18,23.20
2014,08,12,14,19,23.40
2014,08,12,14,20,23.60
2014,08,12,14,21,23.80
2014,08,12,14,22,23.80
2014,08,12,14,23,23.80
2014,08,12,14,24,23.80
2014,08,12,14,25,23.80
2014,08,12,14,26,23.90
2014,08,12,14,27,24.00
2014,08,12,14,28,24.10
2014,08,12,14,29,24.20
2014,08,12,14,30,24.40
2014,08,12,14,31,24.50
2014,08,12,14,32,24.70
2014,08,12,14,33,24.80
2014,08,12,14,34,24.90
2014,08,12,14,35,24.90
2014,08,12,14,36,25.00
2014,08,12,14,37,25.10
2014,08,12,14,38,25.00
2014,08,12,14,39,24.80
2014,08,12,14,40,24.60
2014,08,12,14,41,24.10
2014,08,12,14,42,23.60
2014,08,12,14,43,23.20
2014,08,12,14,44,22.60
2014,08,12,14,45,22.20
2014,08,12,14,46,22.00
2014,08,12,14,47,21.80
2014,08,12,14,48,21.60
2014,08,12,14,49,21.60
2014,08,12,14,50,21.50
2014,08,12,14,51,21.40
2014,08,12,14,52,21.30
2014,08,12,14,53,21.20
2014,08,12,14,54,21.00
2014,08,12,14,55,21.00
2014,08,12,14,56,21.00
2014,08,12,14,57,21.10
2014,08,12,14,58,21.20
2014,08,12,14,59,21.20
2014,08,12,15,00,21.30
2014,08,12,15,01,21.30
2014,08,12,15,02,21.50
2014,08,12,15,03,21.60
2014,08,12,15,04,21.70
2014,08,12,15,05,21.80
2014,08,12,15,06,21.90
2014,08,12,15,07,22.00
2014,08,12,15,08,22.10
2014,08,12,15,09,22.20
2014,08,12,15,10,22.20
2014,08,12,15,11,22.30
2014,08,12,15,12,22.30
2014,08,12,15,13,22.30
2014,08,12,15,14,22.40
2014,08,12,15,15,22.40
2014,08,12,15,16,22.40
2014,08,12,15,17,22.30
2014,08,12,15,18,22.30
2014,08,12,15,19,22.30
2014,08,12,15,20,22.40
2014,08,12,15,21,22.40
2014,08,12,15,22,22.40
2014,08,12,15,23,22.50
2014,08,12,15,24,22.50
2014,08,12,15,25,22.60
2014,08,12,15,26,22.60
2014,08,12,15,27,22.60
2014,08,12,15,28,22.70
2014,08,12,15,29,22.80
2014,08,12,15,30,22.80
2014,08,12,15,31,22.80
2014,08,12,15,32,22.60
2014,08,12,15,33,22.30
2014,08,12,15,34,22.00
2014,08,12,15,35,21.90
2014,08,12,15,36,21.80
2014,08,12,15,37,21.70
2014,08,12,15,38,21.60
2014,08,12,15,39,21.50
2014,08,12,15,40,21.40
2014,08,12,15,41,21.30
2014,08,12,15,42,21.30
2014,08,12,15,43,21.30
2014,08,12,15,44,21.30
2014,08,12,15,45,21.30
2014,08,12,15,46,21.30
2014,08,12,15,47,21.30
2014,08,12,15,48,21.30
2014,08,12,15,49,21.30
2014,08,12,15,50,21.30
2014,08,12,15,51,21.30
2014,08,12,15,52,21.30
2014,08,12,15,53,21.30
2014,08,12,15,54,21.40
2014,08,12,15,55,21.40
2014,08,12,15,56,21.40
2014,08,12,15,57,21.50
2014,08,12,15,58,21.60
2014,08,12,15,59,21.60
2014,08,12,16,00,21.60
2014,08,12,16,01,21.70
2014,08,12,16,02,21.80
2014,08,12,16,03,21.90
2014,08,12,16,04,22.00
2014,08,12,16,05,22.10
2014,08,12,16,06,22.20
2014,08,12,16,07,22.30
2014,08,12,16,08,22.30
2014,08,12,16,09,22.40
2014,08,12,16,10,22.40
2014,08,12,16,11,22.40
2014,08,12,16,12,22.40
2014,08,12,16,13,22.30
2014,08,12,16,14,22.30
2014,08,12,16,15,22.20
2014,08,12,16,16,22.20
2014,08,12,16,17,22.20
2014,08,12,16,18,22.20
2014,08,12,16,19,22.20
2014,08,12,16,20,22.20
2014,08,12,16,21,22.10
2014,08,12,16,22,22.10
2014,08,12,16,23,22.10
2014,08,12,16,24,22.10
2014,08,12,16,25,22.10
2014,08,12,16,26,22.00
2014,08,12,16,27,22.00
2014,08,12,16,28,22.00
2014,08,12,16,29,21.90
2014,08,12,16,30,21.80
2014,08,12,16,31,21.60
2014,08,12,16,32,21.60
2014,08,12,16,33,21.50
2014,08,12,16,34,21.40
2014,08,12,16,35,21.40
2014,08,12,16,36,21.50
2014,08,12,16,37,21.60
2014,08,12,16,38,21.60
2014,08,12,16,39,21.60
2014,08,12,16,40,21.60
2014,08,12,16,41,21.70
2014,08,12,16,42,21.70
2014,08,12,16,43,21.70
2014,08,12,16,44,21.60
2014,08,12,16,45,21.50
2014,08,12,16,46,21.30
2014,08,12,16,47,21.00
2014,08,12,16,48,20.70
2014,08,12,16,49,20.50
2014,08,12,16,50,20.20
2014,08,12,16,51,20.00
2014,08,12,16,52,19.90
2014,08,12,16,53,19.80
2014,08,12,16,54,19.70
2014,08,12,16,55,19.60
2014,08,12,16,56,19.60
2014,08,12,16,57,19.60
2014,08,12,16,58,19.70
2014,08,12,16,59,19.80
2014,08,12,17,00,19.80
2014,08,12,17,01,19.90
2014,08,12,17,02,20.00
2014,08,12,17,03,20.10
2014,08,12,17,04,20.20
2014,08,12,17,05,20.30
2014,08,12,17,06,20.40
2014,08,12,17,07,20.50
2014,08,12,17,08,20.70
2014,08,12,17,09,20.80
2014,08,12,17,10,20.90
2014,08,12,17,11,21.00
2014,08,12,17,12,21.20
2014,08,12,17,13,21.30
2014,08,12,17,14,21.30
2014,08,12,17,15,21.30
2014,08,12,17,16,21.30
2014,08,12,17,17,21.20
2014,08,12,17,18,21.00
2014,08,12,17,19,20.70